User: anonymous   Login
Location: Unspecified
(0.0000°N, 0.0000°E)
Time: 19:42:18
(UTC+00:00)
Language:

USA 135 - Orbit

View from above orbital plane
View from above orbital plane
View from above satellite
View from above satellite

Ground track
Ground track

The orbit data is extracted from the following two-line orbital elements,

1 25019U 97065A   19341.47270551 -.00000047  00000-0  00000+0 0  9994
2 25019   9.9967  37.3524 0007586 266.2711 190.3253  1.00269900  7708
Epoch (UTC): 07 December 2019 11:20:41
Eccentricity: 0.0007586
inclination: 9.9967°
perigee height: 35755 km
apogee height: 35819 km
right ascension of ascending node: 37.3524°
argument of perigee: 266.2711°
revolutions per day: 1.00269900
mean anomaly at epoch: 190.3253°
orbit number at epoch: 770

The dashed part of the orbit path shows where the satellite is in the earth's shadow,  

DLR